CDG8004 RKSI-ZSJN

Flight info

Callsign CDG8004
Flight time 1h 21m
Altitude 32000
Route BINIL3H BINIL Y697 AGAVO/K0817S0975 A591 IKEKA W4 BASOV BASOV6W
Aircraft B738/M-SDE2E3FGHIRWXY/LB1

Departure

Time 2026-04-23 22:27
Airport Incheon International Airport (RKSI)

Arrival

Time 2026-04-23 23:48
Airport Jinan Yaoqiang International Airport (ZSJN)
Time Latitude Longitude Altitude Speed Heading
2026-04-23 21:59 37.45061 126.44485 28 ft 0 kts 117°
2026-04-23 22:16 37.45067 126.44471 28 ft 2 kts 117°
2026-04-23 22:16 37.45074 126.44454 28 ft 2 kts 117°
2026-04-23 22:17 37.45081 126.44437 28 ft 2 kts 117°
2026-04-23 22:17 37.45087 126.44421 28 ft 2 kts 117°
2026-04-23 22:17 37.45094 126.44405 28 ft 2 kts 117°
2026-04-23 22:17 37.45101 126.44387 28 ft 2 kts 124°
2026-04-23 22:18 37.45113 126.44376 28 ft 2 kts 159°
2026-04-23 22:18 37.45128 126.44373 28 ft 2 kts 188°
2026-04-23 22:18 37.45142 126.44379 28 ft 2 kts 217°
2026-04-23 22:18 37.45148 126.44387 28 ft 1 kts 234°
2026-04-23 22:19 37.45151 126.44394 28 ft 0 kts 235°
2026-04-23 22:20 37.45126 126.44350 28 ft 16 kts 233°
2026-04-23 22:21 37.45047 126.44214 28 ft 19 kts 234°
2026-04-23 22:21 37.44977 126.44078 28 ft 17 kts 253°
2026-04-23 22:21 37.45038 126.43970 28 ft 15 kts 326°
2026-04-23 22:21 37.45124 126.43892 28 ft 14 kts 323°
2026-04-23 22:22 37.45204 126.43822 28 ft 13 kts 326°
2026-04-23 22:22 37.45278 126.43755 28 ft 13 kts 322°
2026-04-23 22:22 37.45388 126.43658 28 ft 25 kts 326°
2026-04-23 22:22 37.45552 126.43511 28 ft 29 kts 324°
2026-04-23 22:23 37.45715 126.43366 28 ft 27 kts 324°
2026-04-23 22:23 37.45869 126.43228 28 ft 26 kts 324°
2026-04-23 22:23 37.46017 126.43098 28 ft 25 kts 326°
2026-04-23 22:23 37.46160 126.42968 28 ft 26 kts 324°
2026-04-23 22:24 37.46318 126.42827 28 ft 28 kts 324°
2026-04-23 22:24 37.46481 126.42682 28 ft 28 kts 324°
2026-04-23 22:24 37.46637 126.42544 28 ft 26 kts 324°
2026-04-23 22:24 37.46688 126.42378 28 ft 21 kts 261°
2026-04-23 22:25 37.46640 126.42216 28 ft 19 kts 231°
2026-04-23 22:25 37.46542 126.42213 28 ft 16 kts 140°
2026-04-23 22:25 37.46524 126.42231 28 ft 0 kts 144°
2026-04-23 22:25 37.46519 126.42236 28 ft 5 kts 144°
2026-04-23 22:26 37.46345 126.42390 28 ft 62 kts 144°
2026-04-23 22:26 37.45835 126.42843 28 ft 118 kts 144°
2026-04-23 22:26 37.45019 126.43572 32 ft 163 kts 143°
2026-04-23 22:26 37.44044 126.44442 312 ft 178 kts 144°
2026-04-23 22:27 37.42944 126.45311 726 ft 190 kts 147°
2026-04-23 22:27 37.41812 126.46139 1447 ft 186 kts 148°
2026-04-23 22:27 37.40696 126.46925 1965 ft 186 kts 149°
2026-04-23 22:27 37.39536 126.47706 2355 ft 191 kts 151°
2026-04-23 22:28 37.38343 126.48441 2799 ft 193 kts 154°
2026-04-23 22:28 37.37078 126.49065 3213 ft 197 kts 161°
2026-04-23 22:28 37.35739 126.49538 3588 ft 204 kts 163°
2026-04-23 22:28 37.34303 126.49992 3878 ft 216 kts 163°
2026-04-23 22:29 37.32880 126.50443 4495 ft 210 kts 163°
2026-04-23 22:29 37.31419 126.50913 4681 ft 227 kts 163°
2026-04-23 22:29 37.29852 126.51379 4940 ft 241 kts 168°
2026-04-23 22:29 37.28130 126.51412 5210 ft 255 kts 191°
2026-04-23 22:30 37.26521 126.50428 5659 ft 260 kts 219°
2026-04-23 22:30 37.25206 126.48904 6174 ft 263 kts 224°
2026-04-23 22:30 37.23893 126.47289 6681 ft 266 kts 223°
2026-04-23 22:30 37.22555 126.45676 7211 ft 268 kts 223°
2026-04-23 22:31 37.21184 126.44051 7713 ft 274 kts 223°
2026-04-23 22:31 37.19777 126.42399 8165 ft 282 kts 223°
2026-04-23 22:31 37.18326 126.40698 8548 ft 293 kts 223°
2026-04-23 22:31 37.16833 126.38948 9067 ft 299 kts 223°
2026-04-23 22:32 37.15304 126.37154 9635 ft 303 kts 223°
2026-04-23 22:32 37.13763 126.35350 10242 ft 306 kts 223°
2026-04-23 22:32 37.12203 126.33460 10518 ft 321 kts 228°
2026-04-23 22:32 37.10904 126.31153 10789 ft 334 kts 246°
2026-04-23 22:33 37.10307 126.28287 11065 ft 345 kts 267°
2026-04-23 22:33 37.10245 126.25239 11341 ft 358 kts 272°
2026-04-23 22:33 37.10265 126.22066 11739 ft 368 kts 272°
2026-04-23 22:33 37.10284 126.18883 12364 ft 371 kts 272°
2026-04-23 22:34 37.10286 126.15623 13015 ft 375 kts 272°
2026-04-23 22:34 37.10282 126.12367 13699 ft 376 kts 273°
2026-04-23 22:34 37.10516 126.09121 14278 ft 378 kts 284°
2026-04-23 22:34 37.11272 126.05995 14916 ft 378 kts 293°
2026-04-23 22:35 37.12291 126.02972 15500 ft 381 kts 296°
2026-04-23 22:35 37.13411 125.99968 16273 ft 379 kts 297°
2026-04-23 22:35 37.14534 125.96990 16862 ft 383 kts 297°
2026-04-23 22:35 37.15652 125.93961 17435 ft 387 kts 296°
2026-04-23 22:36 37.16763 125.90868 17981 ft 391 kts 295°
2026-04-23 22:36 37.17848 125.87775 18545 ft 393 kts 295°
2026-04-23 22:36 37.18946 125.84600 19172 ft 395 kts 295°
2026-04-23 22:36 37.20020 125.81472 19732 ft 397 kts 295°
2026-04-23 22:37 37.21114 125.78274 20329 ft 399 kts 294°
2026-04-23 22:37 37.22206 125.75075 20850 ft 402 kts 294°
2026-04-23 22:37 37.23310 125.71835 21384 ft 404 kts 294°
2026-04-23 22:37 37.24406 125.68618 21929 ft 406 kts 294°
2026-04-23 22:38 37.25519 125.65346 22425 ft 409 kts 295°
2026-04-23 22:38 37.26622 125.62103 22924 ft 411 kts 294°
2026-04-23 22:38 37.27749 125.58789 23401 ft 414 kts 295°
2026-04-23 22:38 37.28879 125.55461 23886 ft 416 kts 295°
2026-04-23 22:39 37.30019 125.52097 24319 ft 419 kts 294°
2026-04-23 22:39 37.31146 125.48767 24820 ft 420 kts 294°
2026-04-23 22:39 37.32285 125.45403 25230 ft 423 kts 294°
2026-04-23 22:39 37.33438 125.41988 25697 ft 424 kts 294°
2026-04-23 22:40 37.34582 125.38596 26132 ft 426 kts 294°
2026-04-23 22:40 37.35736 125.35174 26542 ft 428 kts 294°
2026-04-23 22:40 37.38036 125.28230 27338 ft 433 kts 291°
2026-04-23 22:41 37.38935 125.24644 27741 ft 436 kts 285°
2026-04-23 22:41 37.39467 125.20924 28171 ft 438 kts 277°
2026-04-23 22:41 37.39674 125.17081 28473 ft 442 kts 273°
2026-04-23 22:41 37.39698 125.13207 28873 ft 444 kts 270°
2026-04-23 22:42 37.39635 125.09319 29268 ft 445 kts 269°
2026-04-23 22:42 37.39534 125.05370 29790 ft 443 kts 269°
2026-04-23 22:42 37.39426 125.01542 30347 ft 440 kts 269°
2026-04-23 22:42 37.39321 124.97737 30836 ft 436 kts 269°
2026-04-23 22:43 37.39222 124.93912 31316 ft 432 kts 269°
2026-04-23 22:43 37.39132 124.90187 31794 ft 428 kts 269°
2026-04-23 22:43 37.39047 124.86456 32025 ft 429 kts 269°
2026-04-23 22:44 37.38885 124.78975 32036 ft 431 kts 270°
2026-04-23 22:44 37.38723 124.71442 32031 ft 433 kts 270°
2026-04-23 22:45 37.38558 124.63895 32044 ft 430 kts 270°
2026-04-23 22:45 37.38391 124.56382 32031 ft 433 kts 270°
2026-04-23 22:46 37.38216 124.48861 32049 ft 433 kts 269°
2026-04-23 22:46 37.37347 124.41401 32045 ft 435 kts 253°
2026-04-23 22:47 37.34627 124.34531 32043 ft 440 kts 240°
2026-04-23 22:47 37.31376 124.28078 32047 ft 440 kts 238°
2026-04-23 22:48 37.28012 124.21592 32039 ft 440 kts 238°
2026-04-23 22:48 37.24717 124.15179 32051 ft 440 kts 239°
2026-04-23 22:49 37.21393 124.08748 32055 ft 439 kts 238°
2026-04-23 22:49 37.17993 124.02401 32053 ft 438 kts 237°
2026-04-23 22:50 37.14595 123.96048 32048 ft 441 kts 238°
2026-04-23 22:50 37.11264 123.89625 32048 ft 440 kts 238°
2026-04-23 22:51 37.07945 123.83173 32046 ft 442 kts 238°
2026-04-23 22:51 37.04623 123.76730 32049 ft 440 kts 238°
2026-04-23 22:52 37.01268 123.70242 32047 ft 441 kts 239°
2026-04-23 22:52 36.97925 123.63796 32053 ft 441 kts 238°
2026-04-23 22:53 36.94593 123.57390 32048 ft 442 kts 239°
2026-04-23 22:53 36.91225 123.50929 32057 ft 443 kts 239°
2026-04-23 22:54 36.87872 123.44481 32065 ft 443 kts 240°
2026-04-23 22:54 36.85396 123.37508 32049 ft 440 kts 259°
2026-04-23 22:55 36.84943 123.29996 32047 ft 435 kts 275°
2026-04-23 22:55 36.85960 123.22603 32057 ft 433 kts 286°
2026-04-23 22:56 36.87703 123.15405 32062 ft 435 kts 289°
2026-04-23 22:56 36.89567 123.08212 32050 ft 434 kts 289°
2026-04-23 22:57 36.91391 123.01001 32053 ft 438 kts 289°
2026-04-23 22:57 36.93171 122.93761 32072 ft 437 kts 289°
2026-04-23 22:58 36.94938 122.86443 32051 ft 436 kts 288°
2026-04-23 22:58 36.96684 122.79135 32051 ft 438 kts 289°
2026-04-23 22:59 36.98415 122.71843 32049 ft 438 kts 288°
2026-04-23 22:59 37.00141 122.64543 32049 ft 439 kts 288°
2026-04-23 23:00 37.01856 122.57272 32047 ft 438 kts 289°
2026-04-23 23:00 37.03582 122.49928 32059 ft 439 kts 288°
2026-04-23 23:01 37.05296 122.42621 32052 ft 439 kts 288°
2026-04-23 23:01 37.07314 122.35431 32045 ft 436 kts 299°
2026-04-23 23:01 37.08931 122.32233 32048 ft 432 kts 310°
2026-04-23 23:02 37.11005 122.29509 32049 ft 430 kts 320°
2026-04-23 23:02 37.15644 122.24773 32047 ft 429 kts 321°
2026-04-23 23:02 37.17741 122.22109 32045 ft 433 kts 309°
2026-04-23 23:03 37.19313 122.18906 32044 ft 436 kts 297°
2026-04-23 23:03 37.21447 122.11740 32040 ft 438 kts 290°
2026-04-23 23:04 37.23273 122.04446 32033 ft 439 kts 289°
2026-04-23 23:04 37.25091 121.97131 32030 ft 439 kts 289°
2026-04-23 23:05 37.26926 121.89856 32026 ft 437 kts 290°
2026-04-23 23:05 37.28783 121.82575 32029 ft 436 kts 290°
2026-04-23 23:06 37.30629 121.75352 32031 ft 436 kts 290°
2026-04-23 23:06 37.32483 121.68095 32024 ft 436 kts 290°
2026-04-23 23:07 37.34338 121.60820 32024 ft 436 kts 290°
2026-04-23 23:07 37.36178 121.53581 32019 ft 436 kts 290°
2026-04-23 23:08 37.38015 121.46334 32021 ft 436 kts 290°
2026-04-23 23:08 37.39849 121.39074 32021 ft 435 kts 290°
2026-04-23 23:09 37.41672 121.31837 32021 ft 435 kts 289°
2026-04-23 23:09 37.43507 121.24537 32014 ft 435 kts 289°
2026-04-23 23:10 37.45319 121.17317 32020 ft 435 kts 290°
2026-04-23 23:10 37.47436 121.10123 32021 ft 434 kts 294°
2026-04-23 23:11 37.49738 121.03114 32018 ft 433 kts 294°
2026-04-23 23:11 37.52026 120.96146 32017 ft 432 kts 294°
2026-04-23 23:12 37.54292 120.89133 32020 ft 434 kts 294°
2026-04-23 23:12 37.56531 120.82114 32014 ft 432 kts 294°
2026-04-23 23:13 37.58781 120.75005 32011 ft 433 kts 294°
2026-04-23 23:13 37.61048 120.68010 32016 ft 433 kts 294°
2026-04-23 23:14 37.63367 120.60990 32019 ft 432 kts 294°
2026-04-23 23:14 37.65078 120.53740 32014 ft 435 kts 279°
2026-04-23 23:15 37.65110 120.46092 32019 ft 439 kts 268°
2026-04-23 23:15 37.64565 120.38418 32016 ft 439 kts 266°
2026-04-23 23:16 37.63945 120.30810 32012 ft 438 kts 266°
2026-04-23 23:16 37.63343 120.23153 32016 ft 438 kts 266°
2026-04-23 23:17 37.62774 120.15542 32017 ft 439 kts 266°
2026-04-23 23:17 37.62210 120.07877 32016 ft 439 kts 266°
2026-04-23 23:18 37.61649 120.00267 32017 ft 439 kts 266°
2026-04-23 23:18 37.61084 119.92594 32015 ft 438 kts 266°
2026-04-23 23:19 37.60516 119.84947 32019 ft 438 kts 266°
2026-04-23 23:19 37.59943 119.77313 32011 ft 437 kts 266°
2026-04-23 23:20 37.59366 119.69676 32010 ft 438 kts 266°
2026-04-23 23:20 37.58805 119.62063 32007 ft 438 kts 267°
2026-04-23 23:21 37.58296 119.54406 32003 ft 438 kts 268°
2026-04-23 23:21 37.57790 119.46764 31997 ft 437 kts 267°
2026-04-23 23:22 37.57263 119.39156 31996 ft 438 kts 267°
2026-04-23 23:22 37.56723 119.31522 31994 ft 438 kts 266°
2026-04-23 23:23 37.56176 119.23878 31998 ft 438 kts 266°
2026-04-23 23:23 37.55625 119.16259 31997 ft 438 kts 266°
2026-04-23 23:24 37.55068 119.08625 31997 ft 439 kts 266°
2026-04-23 23:24 37.54504 119.00936 31995 ft 438 kts 266°
2026-04-23 23:25 37.53935 118.93282 31993 ft 437 kts 266°
2026-04-23 23:25 37.53361 118.85662 31590 ft 430 kts 266°
2026-04-23 23:25 37.53079 118.81946 31136 ft 427 kts 266°
2026-04-23 23:26 37.52793 118.78216 30527 ft 427 kts 266°
2026-04-23 23:26 37.52438 118.74514 29963 ft 425 kts 264°
2026-04-23 23:26 37.52004 118.70848 29401 ft 422 kts 263°
2026-04-23 23:26 37.51537 118.67252 28841 ft 420 kts 262°
2026-04-23 23:27 37.51054 118.63617 28265 ft 418 kts 262°
2026-04-23 23:27 37.50579 118.60044 27683 ft 416 kts 263°
2026-04-23 23:27 37.50113 118.56493 27096 ft 413 kts 263°
2026-04-23 23:27 37.49652 118.52931 26496 ft 412 kts 263°
2026-04-23 23:28 37.49197 118.49384 25929 ft 409 kts 263°
2026-04-23 23:28 37.48753 118.45910 25356 ft 407 kts 263°
2026-04-23 23:28 37.48309 118.42418 24780 ft 404 kts 263°
2026-04-23 23:28 37.47867 118.38940 24201 ft 402 kts 263°
2026-04-23 23:29 37.47426 118.35477 23630 ft 400 kts 263°
2026-04-23 23:29 37.46988 118.32036 23067 ft 398 kts 262°
2026-04-23 23:29 37.46555 118.28634 22507 ft 396 kts 262°
2026-04-23 23:29 37.46119 118.25223 21933 ft 394 kts 262°
2026-04-23 23:30 37.45687 118.21861 21363 ft 393 kts 262°
2026-04-23 23:30 37.45257 118.18475 20781 ft 391 kts 262°
2026-04-23 23:30 37.44841 118.15139 20212 ft 390 kts 263°
2026-04-23 23:30 37.44426 118.11794 19649 ft 387 kts 263°
2026-04-23 23:31 37.44014 118.08458 19083 ft 385 kts 263°
2026-04-23 23:31 37.43603 118.05152 18509 ft 383 kts 263°
2026-04-23 23:31 37.43193 118.01849 17952 ft 381 kts 263°
2026-04-23 23:31 37.42788 117.98596 17389 ft 378 kts 263°
2026-04-23 23:32 37.42382 117.95351 16832 ft 376 kts 262°
2026-04-23 23:32 37.41973 117.92100 16264 ft 373 kts 262°
2026-04-23 23:32 37.41570 117.88905 15703 ft 370 kts 262°
2026-04-23 23:32 37.41173 117.85764 15156 ft 367 kts 262°
2026-04-23 23:33 37.40772 117.82595 14591 ft 365 kts 262°
2026-04-23 23:33 37.40374 117.79468 14033 ft 362 kts 262°
2026-04-23 23:33 37.39981 117.76374 13479 ft 359 kts 262°
2026-04-23 23:33 37.39589 117.73303 12927 ft 357 kts 262°
2026-04-23 23:34 37.39201 117.70264 12346 ft 346 kts 262°
2026-04-23 23:34 37.38825 117.67345 11829 ft 333 kts 262°
2026-04-23 23:34 37.38462 117.64522 11304 ft 321 kts 262°
2026-04-23 23:34 37.38112 117.61806 10863 ft 313 kts 262°
2026-04-23 23:35 37.37765 117.59106 10448 ft 316 kts 262°
2026-04-23 23:35 37.37420 117.56428 10281 ft 304 kts 262°
2026-04-23 23:35 37.37088 117.53867 10147 ft 287 kts 262°
2026-04-23 23:35 37.36779 117.51491 10018 ft 268 kts 261°
2026-04-23 23:36 37.36475 117.49218 9736 ft 264 kts 261°
2026-04-23 23:36 37.36157 117.46888 9326 ft 270 kts 261°
2026-04-23 23:36 37.35842 117.44585 8993 ft 268 kts 261°
2026-04-23 23:36 37.35519 117.42318 8648 ft 266 kts 258°
2026-04-23 23:37 37.34985 117.40115 8315 ft 264 kts 249°
2026-04-23 23:37 37.34239 117.37993 7964 ft 263 kts 246°
2026-04-23 23:37 37.33452 117.35931 7603 ft 260 kts 246°
2026-04-23 23:37 37.32702 117.33938 7299 ft 250 kts 246°
2026-04-23 23:38 37.31991 117.31993 6983 ft 242 kts 246°
2026-04-23 23:38 37.31306 117.30082 6675 ft 234 kts 246°
2026-04-23 23:38 37.30659 117.28266 6425 ft 225 kts 246°
2026-04-23 23:38 37.30035 117.26517 6333 ft 217 kts 246°
2026-04-23 23:39 37.29416 117.24779 6276 ft 219 kts 246°
2026-04-23 23:39 37.28680 117.23109 6209 ft 215 kts 229°
2026-04-23 23:39 37.27494 117.22093 6077 ft 206 kts 199°
2026-04-23 23:39 37.26091 117.21806 5831 ft 202 kts 188°
2026-04-23 23:40 37.24700 117.21699 5606 ft 199 kts 186°
2026-04-23 23:40 37.23323 117.21639 5392 ft 199 kts 185°
2026-04-23 23:40 37.21936 117.21610 5170 ft 198 kts 185°
2026-04-23 23:40 37.20558 117.21601 4961 ft 196 kts 184°
2026-04-23 23:41 37.19195 117.21597 4745 ft 195 kts 185°
2026-04-23 23:41 37.17848 117.21596 4545 ft 193 kts 185°
2026-04-23 23:41 37.16508 117.21596 4314 ft 191 kts 185°
2026-04-23 23:41 37.15177 117.21597 4107 ft 188 kts 185°
2026-04-23 23:42 37.13867 117.21596 3901 ft 188 kts 185°
2026-04-23 23:42 37.12568 117.21596 3695 ft 186 kts 185°
2026-04-23 23:42 37.11282 117.21597 3559 ft 183 kts 185°
2026-04-23 23:42 37.09990 117.21596 3348 ft 184 kts 185°
2026-04-23 23:43 37.08740 117.21599 3243 ft 174 kts 185°
2026-04-23 23:43 37.07565 117.21600 3197 ft 169 kts 186°
2026-04-23 23:43 37.06374 117.21596 3156 ft 171 kts 185°
2026-04-23 23:43 37.05178 117.21596 3110 ft 170 kts 185°
2026-04-23 23:44 37.03993 117.21597 3048 ft 170 kts 185°
2026-04-23 23:44 37.02806 117.21596 2740 ft 173 kts 186°
2026-04-23 23:44 37.01574 117.21594 2234 ft 184 kts 185°
2026-04-23 23:44 37.00285 117.21597 1935 ft 181 kts 185°
2026-04-23 23:45 36.99100 117.21605 1925 ft 162 kts 186°
2026-04-23 23:45 36.98018 117.21604 1955 ft 150 kts 186°
2026-04-23 23:45 36.96978 117.21598 1965 ft 143 kts 186°
2026-04-23 23:45 36.96019 117.21603 1839 ft 137 kts 187°
2026-04-23 23:46 36.95101 117.21601 1600 ft 130 kts 186°
2026-04-23 23:46 36.94181 117.21597 1451 ft 133 kts 185°
2026-04-23 23:46 36.93243 117.21598 1254 ft 135 kts 185°
2026-04-23 23:46 36.92302 117.21600 1069 ft 136 kts 185°
2026-04-23 23:47 36.91352 117.21592 890 ft 137 kts 185°
2026-04-23 23:47 36.90403 117.21589 702 ft 135 kts 182°
2026-04-23 23:47 36.89469 117.21615 566 ft 136 kts 184°
2026-04-23 23:47 36.88502 117.21602 360 ft 139 kts 182°
2026-04-23 23:48 36.87533 117.21604 163 ft 143 kts 182°
2026-04-23 23:48 36.86552 117.21597 84 ft 130 kts 181°
2026-04-23 23:48 36.85849 117.21596 83 ft 73 kts 182°
2026-04-23 23:48 36.85499 117.21596 83 ft 39 kts 180°
2026-04-23 23:49 36.85045 117.21497 83 ft 20 kts 210°
2026-04-23 23:49 36.84963 117.21434 83 ft 12 kts 215°
2026-04-23 23:49 36.84954 117.21382 83 ft 6 kts 344°
2026-04-23 23:50 36.85001 117.21375 83 ft 6 kts 358°
2026-04-23 23:50 36.85072 117.21375 83 ft 13 kts 359°
2026-04-23 23:50 36.85139 117.21323 83 ft 11 kts 297°
2026-04-23 23:50 36.85197 117.21273 83 ft 10 kts
2026-04-23 23:51 36.85266 117.21273 83 ft 9 kts
2026-04-23 23:51 36.85332 117.21274 83 ft 10 kts
2026-04-23 23:51 36.85426 117.21274 83 ft 12 kts 359°
2026-04-23 23:51 36.85443 117.21251 83 ft 3 kts 266°
2026-04-23 23:52 36.85432 117.21214 83 ft 8 kts 247°
2026-04-23 23:52 36.85404 117.21139 83 ft 9 kts 244°
2026-04-23 23:52 36.85408 117.21072 83 ft 7 kts 314°
2026-04-23 23:52 36.85440 117.21044 83 ft 0 kts 331°
2026-04-23 23:53 36.85442 117.21043 83 ft 0 kts 331°
2026-04-23 23:53 36.85447 117.21040 83 ft 0 kts 332°